マクノート彗星

P/2006 K2 ( McNaught )

English version
Home page
Updated on February 4, 2007

---------------------------------------------------------------------

・ プロフィール

発見日 2006年5月22日
発見光度 17.7等
発見者 R. H. McNaught (Siding Spring Survey)

・ 軌道要素

Epoch 2006 July 4.0 TT = JDT 2453920.5
T 2006 June 27.21796 TT                                 MPC
q   2.0867254            (2000.0)            P               Q
n   0.13890846     Peri.  238.04968     -0.28432177     +0.95822187
a   3.6924696      Node    15.52438     -0.83561473     -0.23173778
e   0.4348700      Incl.    6.68920     -0.47000974     -0.16765575
P   7.10

・ 光度変化

        m1 = 14.5 + 5 logΔ + 10.0 log r

---------------------------------------------------------------------

軌道要素はM.P.E.C. 2006-R30に掲載されたものです。
光度グラフはComet for Windowsで作成したものです。

---------------------------------------------------------------------

Copyright(C) Seiichi Yoshida (comet@aerith.net). All rights reserved.